QPF
0.04 0.03 0.02 0.02 0.02 0.02 0.03 0.03 0.05 0.05 0.04 0.04 0.03 0.02 0.03 0.04 0.03 0.02 0.02 0.02 0.02 0.01 0.01 0.00 0.01 0.00 0.00 0.00 0.01 0.01 0.01 0.02 0.02 0.03 0.03 0.04 0.03 0.04
0.03 0.03 0.03 0.02 0.02 0.02 0.03 0.03 0.04 0.05 0.04 0.04 0.04 0.04 0.03 0.02 0.02 0.03 0.03 0.03 0.02 0.01 0.01 0.01 0.01 0.01 0.00 0.00 0.00 0.01 0.01 0.01 0.01 0.01 0.02 0.03 0.03 0.03
0.02 0.03 0.03 0.03 0.03 0.03 0.03 0.04 0.04 0.05 0.06 0.04 0.04 0.05 0.06 0.06 0.06 0.04 0.03 0.03 0.03 0.02 0.01 0.01 0.01 0.01 0.00 0.00 0.00 0.00 0.00 0.00 0.01 0.01 0.01 0.02 0.03 0.03
0.03 0.04 0.03 0.03 0.04 0.04 0.04 0.04 0.05 0.06 0.06 0.05 0.05 0.06 0.07 0.06 0.07 0.05 0.04 0.03 0.03 0.03 0.01 0.01 0.01 0.01 0.00 0.00 0.00 0.01 0.01 0.01 0.01 0.01 0.01 0.02 0.02 0.02
0.03 0.04 0.04 0.04 0.04 0.05 0.05 0.04 0.04 0.04 0.06 0.06 0.05 0.06 0.05 0.05 0.06 0.05 0.04 0.04 0.02 0.02 0.01 0.01 0.01 0.01 0.01 0.01 0.00 0.00 0.01 0.01 0.01 0.01 0.01 0.01 0.02 0.02
0.04 0.05 0.05 0.05 0.05 0.04 0.05 0.04 0.04 0.03 0.03 0.04 0.03 0.03 0.04 0.05 0.06 0.05 0.03 0.03 0.02 0.02 0.02 0.02 0.02 0.02 0.01 0.01 0.00 0.00 0.01 0.01 0.01 0.01 0.01 0.01 0.02 0.02
0.05 0.05 0.06 0.06 0.05 0.05 0.05 0.04 0.04 0.03 0.03 0.03 0.03 0.03 0.03 0.04 0.03 0.03 0.02 0.02 0.02 0.03 0.04 0.03 0.03 0.03 0.02 0.01 0.01 0.00 0.01 0.01 0.00 0.00 0.00 0.01 0.01 0.01
0.07 0.08 0.08 0.07 0.07 0.07 0.06 0.05 0.05 0.04 0.03 0.04 0.04 0.03 0.03 0.03 0.03 0.03 0.03 0.02 0.02 0.02 0.03 0.04 0.04 0.05 0.05 0.03 0.01 0.01 0.01 0.01 0.00 0.00 0.00 0.00 0.01 0.01
0.11 0.14 0.12 0.09 0.10 0.09 0.07 0.06 0.06 0.05 0.05 0.06 0.06 0.05 0.04 0.04 0.05 0.04 0.04 0.04 0.04 0.03 0.05 0.05 0.07 0.08 0.08 0.06 0.03 0.01 0.01 0.01 0.00 0.00 0.00 0.00 0.01 0.01
0.09 0.13 0.13 0.10 0.09 0.07 0.06 0.05 0.04 0.05 0.07 0.08 0.08 0.08 0.06 0.06 0.06 0.06 0.07 0.07 0.07 0.06 0.05 0.06 0.05 0.06 0.07 0.06 0.03 0.02 0.01 0.01 0.01 0.00 0.00 0.00 0.00 0.00
0.04 0.06 0.07 0.06 0.05 0.04 0.04 0.04 0.04 0.03 0.03 0.04 0.05 0.05 0.06 0.05 0.06 0.06 0.07 0.07 0.07 0.06 0.05 0.05 0.05 0.05 0.06 0.05 0.03 0.02 0.01 0.01 0.01 0.01 0.01 0.01 0.01 0.00
0.03 0.03 0.02 0.03 0.03 0.03 0.04 0.04 0.04 0.03 0.03 0.03 0.04 0.04 0.05 0.05 0.06 0.06 0.06 0.06 0.05 0.05 0.05 0.05 0.06 0.06 0.06 0.06 0.05 0.03 0.02 0.01 0.01 0.01 0.01 0.01 0.01 0.01
0.02 0.02 0.01 0.02 0.02 0.02 0.03 0.03 0.03 0.03 0.04 0.04 0.03 0.03 0.04 0.04 0.05 0.06 0.05 0.05 0.05 0.04 0.04 0.06 0.06 0.07 0.08 0.08 0.06 0.05 0.04 0.03 0.02 0.01 0.01 0.01 0.01 0.02
0.02 0.02 0.02 0.02 0.01 0.01 0.01 0.01 0.02 0.03 0.03 0.02 0.02 0.01 0.02 0.04 0.04 0.05 0.06 0.06 0.06 0.06 0.06 0.08 0.08 0.08 0.09 0.08 0.06 0.04 0.04 0.04 0.04 0.02 0.02 0.01 0.01 0.01
0.02 0.02 0.03 0.03 0.02 0.02 0.01 0.01 0.01 0.02 0.02 0.02 0.02 0.02 0.03 0.03 0.04 0.04 0.05 0.05 0.05 0.05 0.06 0.07 0.07 0.07 0.08 0.08 0.05 0.04 0.04 0.03 0.03 0.03 0.02 0.02 0.02 0.02
0.03 0.03 0.03 0.03 0.03 0.02 0.02 0.02 0.01 0.01 0.02 0.02 0.02 0.03 0.03 0.04 0.03 0.04 0.04 0.04 0.05 0.04 0.05 0.05 0.06 0.06 0.06 0.06 0.06 0.05 0.05 0.05 0.04 0.04 0.03 0.03 0.03 0.03
0.07 0.05 0.04 0.04 0.03 0.02 0.03 0.03 0.03 0.02 0.02 0.02 0.03 0.03 0.03 0.03 0.04 0.03 0.03 0.04 0.04 0.05 0.04 0.04 0.04 0.05 0.05 0.05 0.05 0.05 0.05 0.05 0.04 0.06 0.06 0.05 0.04 0.04
0.09 0.08 0.06 0.05 0.04 0.04 0.03 0.03 0.03 0.03 0.02 0.02 0.03 0.03 0.03 0.03 0.03 0.03 0.02 0.02 0.02 0.03 0.03 0.03 0.04 0.05 0.06 0.04 0.04 0.04 0.05 0.05 0.04 0.05 0.06 0.06 0.05 0.03
0.06 0.08 0.08 0.07 0.06 0.05 0.04 0.04 0.03 0.02 0.01 0.01 0.02 0.02 0.02 0.03 0.03 0.02 0.01 0.01 0.01 0.02 0.02 0.03 0.04 0.05 0.06 0.06 0.04 0.04 0.04 0.05 0.05 0.05 0.05 0.05 0.04 0.04
0.06 0.07 0.07 0.07 0.06 0.06 0.05 0.04 0.03 0.01 0.01 0.01 0.01 0.02 0.02 0.02 0.02 0.02 0.01 0.01 0.02 0.02 0.02 0.02 0.03 0.04 0.05 0.06 0.06 0.05 0.04 0.05 0.05 0.05 0.05 0.05 0.04 0.04
0.06 0.07 0.07 0.06 0.05 0.05 0.04 0.03 0.02 0.02 0.02 0.02 0.02 0.02 0.02 0.02 0.02 0.02 0.02 0.02 0.02 0.02 0.03 0.02 0.03 0.04 0.04 0.05 0.06 0.06 0.06 0.07 0.06 0.06 0.07 0.07 0.05 0.04
0.06 0.07 0.07 0.06 0.05 0.04 0.03 0.03 0.03 0.03 0.03 0.03 0.03 0.03 0.03 0.03 0.03 0.03 0.03 0.03 0.03 0.03 0.03 0.02 0.02 0.04 0.05 0.06 0.06 0.06 0.07 0.08 0.08 0.07 0.06 0.06 0.06 0.05
0.05 0.05 0.05 0.05 0.05 0.04 0.04 0.03 0.02 0.03 0.02 0.03 0.04 0.04 0.03 0.03 0.03 0.03 0.03 0.03 0.03 0.03 0.03 0.04 0.04 0.04 0.04 0.05 0.05 0.05 0.05 0.08 0.09 0.09 0.06 0.04 0.03 0.03
MSLP
1012.29 1012.34 1012.44 1012.57 1012.70 1012.79 1012.82 1012.76 1012.60 1012.34 1012.01 1011.64 1011.28 1010.98 1010.76 1010.66 1010.69 1010.83 1011.07 1011.39 1011.76 1012.14 1012.51 1012.86 1013.18 1013.47 1013.73 1013.98 1014.22 1014.47 1014.73 1015.00 1015.29 1015.57 1015.85 1016.12 1016.37 1016.60
1011.92 1011.89 1011.92 1011.99 1012.08 1012.17 1012.22 1012.21 1012.12 1011.93 1011.67 1011.36 1011.02 1010.71 1010.45 1010.28 1010.22 1010.27 1010.42 1010.66 1010.96 1011.30 1011.65 1012.00 1012.33 1012.63 1012.92 1013.19 1013.45 1013.72 1013.99 1014.28 1014.57 1014.87 1015.17 1015.46 1015.74 1016.00
1011.58 1011.48 1011.43 1011.44 1011.48 1011.56 1011.62 1011.64 1011.61 1011.49 1011.29 1011.03 1010.73 1010.42 1010.14 1009.92 1009.80 1009.76 1009.83 1009.99 1010.23 1010.51 1010.83 1011.15 1011.47 1011.78 1012.08 1012.36 1012.63 1012.90 1013.18 1013.46 1013.75 1014.05 1014.36 1014.67 1014.97 1015.27
1011.27 1011.11 1010.99 1010.94 1010.94 1010.98 1011.04 1011.09 1011.09 1011.02 1010.88 1010.67 1010.41 1010.12 1009.84 1009.59 1009.42 1009.32 1009.32 1009.41 1009.58 1009.81 1010.08 1010.37 1010.67 1010.96 1011.25 1011.52 1011.79 1012.05 1012.32 1012.59 1012.87 1013.17 1013.47 1013.79 1014.11 1014.45
1010.94 1010.74 1010.58 1010.47 1010.43 1010.45 1010.50 1010.55 1010.57 1010.54 1010.44 1010.27 1010.05 1009.79 1009.52 1009.27 1009.07 1008.94 1008.89 1008.92 1009.03 1009.20 1009.41 1009.66 1009.92 1010.19 1010.45 1010.70 1010.95 1011.20 1011.45 1011.71 1011.98 1012.27 1012.58 1012.90 1013.25 1013.60
1010.58 1010.36 1010.16 1010.02 1009.95 1009.93 1009.96 1010.00 1010.02 1010.01 1009.94 1009.82 1009.63 1009.41 1009.17 1008.94 1008.73 1008.59 1008.50 1008.49 1008.54 1008.66 1008.81 1009.01 1009.22 1009.44 1009.67 1009.90 1010.13 1010.36 1010.61 1010.87 1011.14 1011.43 1011.75 1012.08 1012.44 1012.83
1010.16 1009.93 1009.72 1009.56 1009.45 1009.41 1009.40 1009.41 1009.43 1009.42 1009.37 1009.26 1009.12 1008.93 1008.73 1008.53 1008.35 1008.20 1008.11 1008.06 1008.07 1008.13 1008.23 1008.36 1008.52 1008.69 1008.88 1009.09 1009.31 1009.55 1009.81 1010.09 1010.38 1010.70 1011.04 1011.40 1011.78 1012.19
1009.70 1009.46 1009.24 1009.06 1008.93 1008.84 1008.80 1008.78 1008.76 1008.74 1008.68 1008.60 1008.48 1008.34 1008.18 1008.02 1007.87 1007.74 1007.64 1007.58 1007.55 1007.55 1007.59 1007.67 1007.77 1007.90 1008.07 1008.27 1008.50 1008.77 1009.07 1009.40 1009.75 1010.11 1010.50 1010.90 1011.30 1011.72
1009.22 1008.97 1008.74 1008.53 1008.37 1008.24 1008.15 1008.08 1008.02 1007.97 1007.90 1007.82 1007.73 1007.61 1007.50 1007.37 1007.26 1007.15 1007.05 1006.97 1006.92 1006.88 1006.87 1006.89 1006.95 1007.05 1007.21 1007.42 1007.69 1008.01 1008.38 1008.79 1009.22 1009.67 1010.12 1010.57 1011.01 1011.44
1008.77 1008.51 1008.25 1008.02 1007.80 1007.62 1007.47 1007.35 1007.23 1007.13 1007.04 1006.95 1006.86 1006.77 1006.68 1006.60 1006.51 1006.42 1006.33 1006.24 1006.16 1006.08 1006.02 1006.00 1006.03 1006.12 1006.28 1006.53 1006.86 1007.26 1007.73 1008.25 1008.79 1009.34 1009.87 1010.38 1010.86 1011.31
1008.41 1008.12 1007.83 1007.55 1007.28 1007.04 1006.82 1006.63 1006.45 1006.29 1006.16 1006.04 1005.95 1005.86 1005.79 1005.73 1005.66 1005.58 1005.50 1005.40 1005.29 1005.18 1005.09 1005.04 1005.05 1005.14 1005.32 1005.62 1006.02 1006.52 1007.10 1007.73 1008.39 1009.05 1009.68 1010.26 1010.78 1011.24
1008.17 1007.85 1007.51 1007.18 1006.85 1006.54 1006.25 1005.98 1005.73 1005.52 1005.33 1005.18 1005.06 1004.97 1004.90 1004.84 1004.78 1004.71 1004.62 1004.50 1004.38 1004.24 1004.13 1004.06 1004.06 1004.15 1004.37 1004.71 1005.18 1005.77 1006.46 1007.20 1007.97 1008.73 1009.45 1010.09 1010.66 1011.14
1008.08 1007.71 1007.33 1006.95 1006.56 1006.18 1005.82 1005.48 1005.16 1004.88 1004.64 1004.44 1004.29 1004.18 1004.09 1004.02 1003.96 1003.88 1003.78 1003.65 1003.50 1003.35 1003.22 1003.14 1003.13 1003.23 1003.47 1003.85 1004.38 1005.04 1005.80 1006.63 1007.49 1008.33 1009.11 1009.81 1010.42 1010.92
1008.13 1007.73 1007.30 1006.87 1006.43 1006.00 1005.57 1005.16 1004.79 1004.45 1004.15 1003.91 1003.72 1003.57 1003.46 1003.37 1003.29 1003.19 1003.07 1002.93 1002.77 1002.60 1002.45 1002.36 1002.35 1002.45 1002.70 1003.09 1003.65 1004.34 1005.14 1006.02 1006.92 1007.80 1008.63 1009.37 1010.01 1010.54
1008.28 1007.85 1007.41 1006.94 1006.47 1006.00 1005.53 1005.08 1004.65 1004.27 1003.93 1003.64 1003.41 1003.22 1003.08 1002.96 1002.84 1002.72 1002.59 1002.43 1002.25 1002.07 1001.91 1001.80 1001.78 1001.87 1002.10 1002.49 1003.03 1003.72 1004.51 1005.38 1006.28 1007.17 1008.02 1008.77 1009.43 1009.98
1008.49 1008.07 1007.62 1007.15 1006.67 1006.18 1005.70 1005.23 1004.78 1004.36 1003.99 1003.67 1003.40 1003.17 1002.99 1002.83 1002.68 1002.53 1002.36 1002.18 1001.99 1001.79 1001.62 1001.51 1001.47 1001.54 1001.74 1002.09 1002.58 1003.21 1003.96 1004.78 1005.64 1006.49 1007.31 1008.07 1008.74 1009.31
1008.71 1008.32 1007.90 1007.46 1007.00 1006.54 1006.07 1005.60 1005.15 1004.73 1004.34 1003.99 1003.69 1003.42 1003.19 1002.99 1002.80 1002.61 1002.41 1002.21 1002.00 1001.80 1001.62 1001.49 1001.43 1001.46 1001.62 1001.91 1002.34 1002.89 1003.54 1004.27 1005.05 1005.85 1006.62 1007.35 1008.01 1008.61
1008.92 1008.59 1008.23 1007.84 1007.44 1007.02 1006.60 1006.17 1005.74 1005.33 1004.94 1004.58 1004.24 1003.94 1003.66 1003.41 1003.17 1002.94 1002.71 1002.48 1002.25 1002.04 1001.86 1001.72 1001.64 1001.65 1001.76 1001.98 1002.32 1002.77 1003.32 1003.94 1004.62 1005.33 1006.04 1006.72 1007.38 1007.99
1009.10 1008.85 1008.56 1008.26 1007.94 1007.59 1007.24 1006.87 1006.49 1006.11 1005.73 1005.36 1005.00 1004.66 1004.33 1004.02 1003.73 1003.45 1003.18 1002.93 1002.69 1002.47 1002.28 1002.14 1002.05 1002.03 1002.10 1002.26 1002.52 1002.87 1003.31 1003.82 1004.40 1005.01 1005.64 1006.28 1006.92 1007.53
1009.25 1009.08 1008.89 1008.69 1008.46 1008.21 1007.94 1007.64 1007.32 1006.98 1006.63 1006.26 1005.88 1005.49 1005.12 1004.75 1004.40 1004.07 1003.75 1003.47 1003.22 1003.00 1002.81 1002.67 1002.59 1002.56 1002.60 1002.71 1002.90 1003.17 1003.51 1003.92 1004.39 1004.92 1005.48 1006.07 1006.67 1007.29
1009.37 1009.29 1009.20 1009.10 1008.97 1008.83 1008.65 1008.43 1008.18 1007.89 1007.56 1007.19 1006.79 1006.36 1005.93 1005.51 1005.09 1004.70 1004.35 1004.03 1003.77 1003.54 1003.37 1003.25 1003.17 1003.15 1003.18 1003.26 1003.41 1003.61 1003.88 1004.20 1004.59 1005.03 1005.53 1006.07 1006.64 1007.25
1009.46 1009.47 1009.48 1009.47 1009.45 1009.40 1009.32 1009.19 1009.00 1008.76 1008.45 1008.08 1007.66 1007.20 1006.71 1006.22 1005.75 1005.30 1004.90 1004.55 1004.27 1004.05 1003.89 1003.79 1003.73 1003.73 1003.76 1003.84 1003.96 1004.12 1004.33 1004.59 1004.90 1005.28 1005.72 1006.21 1006.75 1007.34
1009.52 1009.61 1009.70 1009.79 1009.86 1009.90 1009.91 1009.85 1009.73 1009.53 1009.24 1008.88 1008.44 1007.94 1007.40 1006.85 1006.32 1005.82 1005.37 1004.99 1004.70 1004.48 1004.33 1004.25 1004.22 1004.23 1004.28 1004.36 1004.46 1004.60 1004.77 1004.98 1005.24 1005.56 1005.94 1006.39 1006.90 1007.46
Thickness
5739 5738 5737 5738 5738 5738 5737 5733 5725 5719 5721 5728 5730 5734 5733 5731 5730 5728 5727 5725 5724 5722 5721 5720 5718 5717 5716 5715 5714 5714 5713 5713 5713 5713 5713 5713 5712 5712
5735 5732 5731 5731 5732 5732 5731 5730 5727 5720 5716 5722 5724 5726 5726 5726 5725 5723 5722 5721 5720 5719 5717 5716 5714 5713 5712 5711 5710 5709 5709 5708 5708 5708 5708 5708 5708 5707
5730 5728 5726 5725 5724 5724 5724 5723 5721 5718 5712 5715 5718 5720 5719 5718 5718 5717 5717 5716 5715 5714 5713 5712 5710 5709 5708 5706 5705 5704 5704 5703 5702 5702 5702 5702 5702 5702
5724 5722 5720 5720 5717 5717 5716 5715 5714 5714 5710 5706 5709 5711 5711 5712 5712 5711 5711 5711 5710 5709 5708 5707 5706 5704 5703 5702 5701 5700 5698 5698 5697 5696 5696 5696 5697 5697
5719 5717 5715 5713 5711 5710 5709 5708 5708 5708 5706 5702 5702 5704 5705 5706 5705 5704 5705 5704 5704 5704 5703 5702 5700 5699 5698 5697 5696 5694 5693 5692 5691 5690 5690 5690 5690 5690
5713 5712 5711 5708 5706 5704 5703 5701 5701 5699 5698 5696 5695 5696 5696 5698 5697 5694 5694 5695 5695 5697 5696 5695 5694 5693 5692 5691 5690 5689 5687 5686 5685 5684 5683 5683 5683 5683
5707 5706 5705 5703 5701 5699 5697 5694 5693 5691 5689 5688 5687 5687 5687 5686 5685 5686 5685 5686 5687 5689 5688 5688 5687 5686 5685 5684 5683 5682 5681 5680 5679 5678 5677 5677 5676 5677
5698 5697 5697 5696 5694 5691 5689 5688 5686 5683 5681 5679 5678 5677 5677 5678 5677 5677 5676 5675 5674 5680 5679 5679 5680 5679 5678 5678 5677 5676 5675 5673 5672 5671 5670 5670 5670 5669
5690 5688 5688 5688 5686 5683 5682 5681 5679 5678 5676 5673 5670 5669 5669 5670 5668 5667 5666 5666 5666 5670 5671 5670 5672 5670 5672 5672 5670 5669 5667 5666 5665 5664 5663 5663 5662 5662
5684 5682 5679 5678 5678 5675 5674 5673 5672 5671 5669 5667 5666 5665 5665 5664 5662 5661 5660 5660 5662 5663 5663 5660 5662 5662 5664 5663 5663 5661 5660 5659 5658 5657 5656 5656 5655 5655
5677 5676 5673 5671 5668 5667 5666 5664 5663 5662 5663 5661 5660 5659 5658 5658 5656 5653 5651 5649 5650 5653 5655 5652 5653 5654 5654 5655 5655 5653 5653 5651 5650 5649 5649 5648 5648 5647
5668 5666 5665 5662 5660 5658 5656 5655 5652 5652 5653 5653 5652 5652 5652 5651 5650 5647 5645 5642 5641 5642 5646 5644 5644 5643 5642 5646 5646 5645 5643 5643 5642 5641 5641 5641 5640 5639
5658 5657 5655 5653 5651 5649 5648 5646 5645 5644 5644 5645 5645 5645 5645 5644 5644 5642 5641 5637 5635 5635 5639 5637 5635 5634 5632 5634 5636 5637 5636 5636 5634 5633 5633 5633 5633 5632
5649 5648 5647 5645 5643 5641 5641 5640 5638 5637 5637 5637 5636 5636 5636 5635 5636 5635 5635 5633 5632 5632 5632 5630 5627 5626 5624 5625 5626 5629 5629 5630 5629 5628 5627 5626 5625 5626
5641 5639 5637 5636 5635 5634 5634 5632 5630 5629 5628 5627 5627 5627 5628 5628 5628 5628 5628 5627 5627 5627 5627 5626 5623 5622 5620 5618 5619 5620 5620 5622 5622 5622 5621 5620 5620 5619
5630 5629 5628 5628 5627 5627 5627 5625 5623 5622 5620 5619 5619 5620 5621 5620 5620 5620 5619 5618 5617 5618 5620 5620 5619 5617 5614 5613 5612 5613 5613 5613 5614 5614 5614 5614 5615 5615
5620 5619 5620 5620 5620 5619 5619 5619 5617 5615 5613 5611 5611 5611 5611 5611 5610 5611 5610 5609 5608 5608 5609 5611 5612 5611 5610 5608 5606 5607 5607 5607 5608 5607 5606 5606 5608 5609
5612 5612 5612 5612 5612 5612 5612 5611 5610 5608 5606 5605 5604 5603 5602 5602 5601 5602 5601 5601 5600 5600 5600 5602 5602 5602 5601 5602 5601 5600 5600 5600 5601 5602 5601 5600 5601 5603
5606 5607 5606 5606 5605 5605 5604 5603 5603 5602 5600 5598 5597 5596 5595 5595 5594 5593 5593 5593 5592 5592 5593 5593 5593 5591 5590 5591 5594 5594 5593 5594 5594 5595 5595 5595 5596 5598
5602 5601 5601 5600 5599 5598 5597 5596 5595 5595 5593 5591 5590 5589 5589 5588 5587 5586 5585 5585 5584 5585 5585 5585 5585 5584 5582 5583 5584 5586 5587 5587 5587 5588 5589 5591 5592 5593
5597 5595 5595 5594 5593 5591 5590 5589 5588 5588 5586 5584 5583 5582 5582 5581 5580 5580 5579 5578 5577 5577 5577 5577 5578 5578 5578 5578 5578 5579 5580 5581 5582 5581 5583 5583 5584 5585
5592 5590 5589 5588 5587 5585 5584 5582 5582 5581 5579 5578 5577 5576 5576 5575 5574 5574 5573 5572 5571 5571 5571 5571 5572 5571 5571 5571 5571 5572 5573 5574 5575 5577 5577 5578 5578 5579
5587 5585 5584 5582 5581 5579 5578 5577 5576 5575 5573 5571 5570 5570 5570 5570 5570 5569 5567 5566 5566 5565 5564 5564 5564 5564 5565 5566 5566 5566 5567 5568 5569 5570 5570 5572 5574 5575